| time (UTC) | temp F | wind direction | speed MPH | gust MPH | rain 1hr in | rain 24hr in | rain mn in | humidity % | barometer mb |
| 20260507055020 | 47 | 0 | 0.0 | 0.0 | 0.00 | 0.00 | 0.00 | 82 | 1016.7 |
| 20260507054542 | 47 | 0 | 0.0 | 0.0 | 0.00 | 0.00 | 0.00 | 81 | 1016.7 |
| 20260507054020 | 47 | 0 | 0.0 | 0.0 | 0.00 | 0.00 | 0.00 | 80 | 1016.7 |
| 20260507053522 | 47 | 0 | 0.0 | 0.0 | 0.00 | 0.00 | 0.00 | 79 | 1016.7 |
| 20260507053039 | 47 | 0 | 0.0 | 0.0 | 0.00 | 0.00 | 0.00 | 79 | 1016.7 |
| 20260507052521 | 47 | 0 | 0.0 | 0.0 | 0.00 | 0.00 | 0.00 | 78 | 1016.8 |
| 20260507052112 | 47 | 0 | 0.0 | 0.0 | 0.00 | 0.00 | 0.00 | 78 | 1016.7 |
| 20260507051537 | 47 | 0 | 0.0 | 0.0 | 0.00 | 0.00 | 0.00 | 77 | 1016.6 |
| 20260507051021 | 47 | 0 | 0.0 | 0.0 | 0.00 | 0.00 | 0.00 | 77 | 1016.6 |
| 20260507050521 | 47 | 0 | 0.0 | 0.0 | 0.00 | 0.00 | 0.00 | 76 | 1016.5 |
| 20260507050037 | 47 | 0 | 0.0 | 0.0 | 0.00 | 0.00 | 0.00 | 73 | 1016.6 |
| 20260507045521 | 48 | 0 | 0.0 | 0.0 | 0.00 | 0.00 | 0.00 | 73 | 1016.6 |
| 20260507045021 | 48 | 0 | 0.0 | 0.0 | 0.00 | 0.00 | 0.00 | 73 | 1016.5 |
| 20260507044542 | 49 | 0 | 0.0 | 0.0 | 0.00 | 0.00 | 0.00 | 73 | 1016.6 |
| 20260507044020 | 49 | 0 | 0.0 | 0.0 | 0.00 | 0.00 | 0.00 | 74 | 1016.5 |
| 20260507043521 | 49 | 0 | 0.0 | 0.0 | 0.00 | 0.00 | 0.00 | 74 | 1016.5 |
| 20260507043039 | 50 | 0 | 0.0 | 0.0 | 0.00 | 0.00 | 0.00 | 73 | 1016.4 |
| 20260507042522 | 50 | 0 | 0.0 | 0.0 | 0.00 | 0.00 | 0.00 | 73 | 1016.4 |
| 20260507042020 | 50 | 0 | 0.0 | 0.0 | 0.00 | 0.00 | 0.00 | 72 | 1016.4 |
| 20260507041538 | 50 | 0 | 0.0 | 0.0 | 0.00 | 0.00 | 0.00 | 71 | 1016.5 |
| 20260507041021 | 51 | 0 | 0.0 | 0.0 | 0.00 | 0.00 | 0.00 | 70 | 1016.6 |
| 20260507040523 | 51 | 0 | 0.0 | 0.0 | 0.00 | 0.00 | 0.00 | 70 | 1016.5 |
| 20260507040037 | 51 | 0 | 0.0 | 0.0 | 0.00 | 0.00 | 0.00 | 68 | 1016.7 |
| 20260507035521 | 51 | 0 | 0.0 | 0.0 | 0.00 | 0.00 | 0.00 | 69 | 1016.7 |
| 20260507035023 | 52 | 0 | 0.0 | 0.0 | 0.00 | 0.00 | 0.00 | 68 | 1016.7 |
| 20260507034540 | 52 | 0 | 0.0 | 0.0 | 0.00 | 0.00 | 0.00 | 67 | 1016.6 |
| 20260507034022 | 52 | 0 | 0.0 | 0.0 | 0.00 | 0.00 | 0.00 | 67 | 1016.5 |
| 20260507033524 | 52 | 0 | 0.0 | 0.0 | 0.00 | 0.00 | 0.00 | 67 | 1016.6 |
| 20260507033035 | 52 | 0 | 0.0 | 0.0 | 0.00 | 0.00 | 0.00 | 67 | 1016.7 |
| 20260507032522 | 52 | 0 | 0.0 | 0.0 | 0.00 | 0.00 | 0.00 | 67 | 1016.5 |
| 20260507032021 | 52 | 0 | 0.0 | 0.0 | 0.00 | 0.00 | 0.00 | 66 | 1016.5 |
| 20260507031539 | 53 | 0 | 0.0 | 0.0 | 0.00 | 0.00 | 0.00 | 66 | 1016.5 |
| 20260507031022 | 53 | 0 | 0.0 | 0.0 | 0.00 | 0.00 | 0.00 | 66 | 1016.4 |
| 20260507030521 | 53 | 0 | 0.0 | 0.0 | 0.00 | 0.00 | 0.00 | 66 | 1016.4 |
| 20260507030042 | 53 | 0 | 0.0 | 0.0 | 0.00 | 0.00 | 0.00 | 65 | 1016.4 |
| 20260507025523 | 53 | 0 | 0.0 | 0.0 | 0.00 | 0.00 | 0.00 | 65 | 1016.3 |
| 20260507025021 | 53 | 0 | 0.0 | 0.0 | 0.00 | 0.00 | 0.00 | 66 | 1016.4 |
| 20260507024538 | 53 | 0 | 0.0 | 0.0 | 0.00 | 0.00 | 0.00 | 65 | 1016.4 |
| 20260507024024 | 53 | 0 | 0.0 | 1.0 | 0.00 | 0.00 | 0.00 | 65 | 1016.3 |
| 20260507023521 | 54 | 0 | 0.0 | 2.0 | 0.00 | 0.00 | 0.00 | 63 | 1016.2 |
| 20260507023037 | 54 | 0 | 0.0 | 2.0 | 0.00 | 0.00 | 0.00 | 62 | 1016.3 |
| 20260507022521 | 54 | 0 | 0.0 | 3.0 | 0.00 | 0.00 | 0.00 | 62 | 1016.3 |
| 20260507022023 | 54 | 360 | 1.0 | 3.0 | 0.00 | 0.00 | 0.00 | 62 | 1016.2 |
| 20260507021538 | 54 | 360 | 1.0 | 3.0 | 0.00 | 0.00 | 0.00 | 61 | 1016.1 |
| 20260507021021 | 54 | 339 | 1.0 | 3.0 | 0.00 | 0.00 | 0.00 | 60 | 1016.0 |
| 20260507020545 | 54 | 9 | 1.0 | 3.0 | 0.00 | 0.00 | 0.00 | 59 | 1015.9 |
| 20260507020043 | 55 | 9 | 1.0 | 3.0 | 0.00 | 0.00 | 0.00 | 59 | 1015.6 |
| 20260507015521 | 55 | 5 | 1.0 | 3.0 | 0.00 | 0.00 | 0.00 | 58 | 1015.6 |
| 20260507015021 | 55 | 5 | 1.0 | 2.0 | 0.00 | 0.00 | 0.00 | 58 | 1015.6 |
| 20260507014547 | 55 | 5 | 1.0 | 2.0 | 0.00 | 0.00 | 0.00 | 58 | 1015.5 |
| 20260507014021 | 55 | 5 | 1.0 | 3.0 | 0.00 | 0.00 | 0.00 | 57 | 1015.5 |
| 20260507013521 | 55 | 9 | 1.0 | 3.0 | 0.00 | 0.00 | 0.00 | 57 | 1015.4 |
| 20260507013048 | 56 | 9 | 1.0 | 4.0 | 0.00 | 0.00 | 0.00 | 57 | 1015.5 |
| 20260507012520 | 56 | 5 | 1.0 | 4.0 | 0.00 | 0.00 | 0.00 | 56 | 1015.4 |
| 20260507012021 | 56 | 5 | 2.0 | 4.0 | 0.00 | 0.00 | 0.00 | 56 | 1015.4 |
| 20260507011537 | 56 | 9 | 1.0 | 3.0 | 0.00 | 0.00 | 0.00 | 56 | 1015.2 |
| 20260507011021 | 56 | 19 | 2.0 | 3.0 | 0.00 | 0.00 | 0.00 | 56 | 1015.2 |
| 20260507010523 | 56 | 40 | 1.0 | 3.0 | 0.00 | 0.00 | 0.00 | 56 | 1015.3 |
| 20260507010051 | 56 | 0 | 0.0 | 4.0 | 0.00 | 0.00 | 0.00 | 55 | 1015.2 |
| 20260507005521 | 57 | 40 | 2.0 | 5.0 | 0.00 | 0.00 | 0.00 | 55 | 1015.2 |
| 20260507005020 | 57 | 42 | 3.0 | 8.0 | 0.00 | 0.00 | 0.00 | 54 | 1015.3 |
| 20260507004537 | 57 | 37 | 4.0 | 8.0 | 0.00 | 0.00 | 0.00 | 54 | 1015.3 |
| 20260507004021 | 57 | 32 | 5.0 | 9.0 | 0.00 | 0.00 | 0.00 | 53 | 1015.2 |
| 20260507003520 | 58 | 25 | 4.0 | 11.0 | 0.00 | 0.00 | 0.00 | 53 | 1015.2 |
| 20260507003039 | 58 | 50 | 5.0 | 11.0 | 0.00 | 0.00 | 0.00 | 51 | 1015.2 |
| 20260507002522 | 58 | 34 | 6.0 | 11.0 | 0.00 | 0.00 | 0.00 | 50 | 1015.2 |
| 20260507002021 | 59 | 65 | 7.0 | 10.0 | 0.00 | 0.00 | 0.00 | 49 | 1015.2 |
| 20260507001539 | 58 | 49 | 6.0 | 12.0 | 0.00 | 0.00 | 0.00 | 50 | 1015.2 |
| 20260507001023 | 58 | 41 | 5.0 | 13.0 | 0.00 | 0.00 | 0.00 | 51 | 1015.2 |
| 20260507000521 | 58 | 42 | 10.0 | 15.0 | 0.00 | 0.00 | 0.00 | 50 | 1015.1 |
| 20260507000039 | 59 | 32 | 10.0 | 15.0 | 0.00 | 0.00 | 0.00 | 49 | 1015.1 |
| 20260506235521 | 59 | 31 | 9.0 | 15.0 | 0.00 | 0.00 | 0.00 | 48 | 1015.0 |
| 20260506235020 | 60 | 31 | 7.0 | 15.0 | 0.00 | 0.00 | 0.00 | 46 | 1014.9 |
| 20260506234539 | 60 | 41 | 8.0 | 15.0 | 0.00 | 0.00 | 0.00 | 46 | 1014.8 |
| 20260506234021 | 59 | 360 | 6.0 | 12.0 | 0.00 | 0.00 | 0.00 | 48 | 1014.8 |
| 20260506233523 | 59 | 28 | 4.0 | 9.0 | 0.00 | 0.00 | 0.00 | 48 | 1014.8 |
| 20260506233054 | 59 | 5 | 5.0 | 11.0 | 0.00 | 0.00 | 0.00 | 48 | 1014.7 |
| 20260506232521 | 59 | 13 | 5.0 | 11.0 | 0.00 | 0.00 | 0.00 | 47 | 1014.7 |
| 20260506232021 | 59 | 360 | 8.0 | 14.0 | 0.00 | 0.00 | 0.00 | 48 | 1014.7 |
| 20260506231540 | 59 | 32 | 9.0 | 14.0 | 0.00 | 0.00 | 0.00 | 46 | 1014.8 |
| 20260506231022 | 60 | 48 | 8.0 | 16.0 | 0.00 | 0.00 | 0.00 | 45 | 1014.8 |
| 20260506230520 | 61 | 25 | 8.0 | 16.0 | 0.00 | 0.00 | 0.00 | 44 | 1014.8 |
| 20260506230036 | 62 | 25 | 7.0 | 15.0 | 0.00 | 0.00 | 0.00 | 45 | 1014.8 |
| 20260506225521 | 62 | 23 | 6.0 | 18.0 | 0.00 | 0.00 | 0.00 | 45 | 1014.8 |
| 20260506225021 | 62 | 22 | 4.0 | 18.0 | 0.00 | 0.00 | 0.00 | 42 | 1014.7 |
| 20260506224540 | 62 | 66 | 11.0 | 18.0 | 0.00 | 0.00 | 0.00 | 44 | 1014.6 |
| 20260506224022 | 62 | 54 | 10.0 | 16.0 | 0.00 | 0.00 | 0.00 | 44 | 1014.5 |
| 20260506223520 | 61 | 38 | 6.0 | 14.0 | 0.00 | 0.00 | 0.00 | 44 | 1014.4 |
| 20260506223038 | 61 | 56 | 10.0 | 17.0 | 0.00 | 0.00 | 0.00 | 44 | 1014.5 |
| 20260506222521 | 61 | 26 | 11.0 | 17.0 | 0.00 | 0.00 | 0.00 | 43 | 1014.5 |
| 20260506222025 | 61 | 41 | 9.0 | 14.0 | 0.00 | 0.00 | 0.00 | 45 | 1014.5 |
| 20260506221539 | 60 | 9 | 6.0 | 13.0 | 0.00 | 0.00 | 0.00 | 45 | 1014.5 |
| 20260506221022 | 60 | 17 | 6.0 | 13.0 | 0.00 | 0.00 | 0.00 | 42 | 1014.5 |
| 20260506220521 | 61 | 60 | 5.0 | 16.0 | 0.00 | 0.00 | 0.00 | 43 | 1014.5 |
| 20260506220036 | 61 | 71 | 7.0 | 17.0 | 0.00 | 0.00 | 0.00 | 42 | 1014.6 |
| 20260506215522 | 63 | 38 | 13.0 | 18.0 | 0.00 | 0.00 | 0.00 | 42 | 1014.7 |
| 20260506215021 | 63 | 53 | 10.0 | 18.0 | 0.00 | 0.00 | 0.00 | 46 | 1014.7 |
| 20260506214537 | 62 | 20 | 6.0 | 17.0 | 0.00 | 0.00 | 0.00 | 41 | 1014.7 |
| 20260506214023 | 63 | 77 | 8.0 | 17.0 | 0.00 | 0.00 | 0.00 | 42 | 1014.6 |
| 20260506213520 | 63 | 65 | 11.0 | 16.0 | 0.00 | 0.00 | 0.00 | 46 | 1014.7 |
| 20260506213036 | 62 | 344 | 7.0 | 14.0 | 0.00 | 0.00 | 0.00 | 43 | 1014.8 |
| 20260506212521 | 62 | 64 | 7.0 | 15.0 | 0.00 | 0.00 | 0.00 | 44 | 1014.7 |
| 20260506212021 | 62 | 323 | 8.0 | 15.0 | 0.00 | 0.00 | 0.00 | 42 | 1014.7 |
| 20260506211539 | 62 | 44 | 8.0 | 17.0 | 0.00 | 0.00 | 0.00 | 42 | 1014.8 |
| 20260506211021 | 62 | 360 | 5.0 | 17.0 | 0.00 | 0.00 | 0.00 | 42 | 1014.9 |
| 20260506210526 | 62 | 36 | 11.0 | 17.0 | 0.00 | 0.00 | 0.00 | 42 | 1014.9 |
| 20260506210038 | 62 | 5 | 11.0 | 20.0 | 0.00 | 0.00 | 0.00 | 41 | 1014.9 |
| 20260506205521 | 62 | 24 | 8.0 | 20.0 | 0.00 | 0.00 | 0.00 | 38 | 1015.0 |
| 20260506205024 | 62 | 67 | 13.0 | 20.0 | 0.00 | 0.00 | 0.00 | 43 | 1015.1 |
| 20260506204539 | 61 | 14 | 8.0 | 16.0 | 0.00 | 0.00 | 0.00 | 43 | 1015.2 |
| 20260506204025 | 62 | 26 | 9.0 | 16.0 | 0.00 | 0.00 | 0.00 | 43 | 1015.3 |
| 20260506203521 | 62 | 40 | 11.0 | 17.0 | 0.00 | 0.00 | 0.00 | 42 | 1015.3 |
| 20260506203037 | 61 | 55 | 6.0 | 17.0 | 0.00 | 0.00 | 0.00 | 44 | 1015.4 |
| 20260506202521 | 62 | 51 | 7.0 | 17.0 | 0.00 | 0.00 | 0.00 | 41 | 1015.5 |
| 20260506202021 | 62 | 32 | 8.0 | 16.0 | 0.00 | 0.00 | 0.00 | 41 | 1015.6 |
| 20260506201540 | 62 | 318 | 8.0 | 18.0 | 0.00 | 0.00 | 0.00 | 41 | 1015.5 |
| 20260506201024 | 62 | 45 | 10.0 | 18.0 | 0.00 | 0.00 | 0.00 | 41 | 1015.7 |
| 20260506200522 | 62 | 41 | 11.0 | 17.0 | 0.00 | 0.00 | 0.00 | 42 | 1015.7 |
| 20260506200042 | 62 | 36 | 7.0 | 15.0 | 0.00 | 0.00 | 0.00 | 44 | 1015.8 |
| 20260506195521 | 61 | 76 | 6.0 | 20.0 | 0.00 | 0.00 | 0.00 | 43 | 1015.8 |
| 20260506195022 | 62 | 53 | 12.0 | 20.0 | 0.00 | 0.00 | 0.00 | 44 | 1016.0 |
| 20260506194544 | 61 | 352 | 5.0 | 15.0 | 0.00 | 0.00 | 0.00 | 44 | 1015.9 |
| 20260506194022 | 61 | 49 | 9.0 | 18.0 | 0.00 | 0.00 | 0.00 | 44 | 1016.0 |
| 20260506193521 | 62 | 100 | 10.0 | 19.0 | 0.00 | 0.00 | 0.00 | 40 | 1016.0 |
| 20260506193034 | 62 | 55 | 11.0 | 19.0 | 0.00 | 0.00 | 0.00 | 44 | 1015.9 |
| 20260506192524 | 61 | 327 | 12.0 | 19.0 | 0.00 | 0.00 | 0.00 | 44 | 1015.8 |
| 20260506192021 | 62 | 44 | 11.0 | 20.0 | 0.00 | 0.00 | 0.00 | 43 | 1015.9 |
| 20260506191539 | 62 | 57 | 12.0 | 20.0 | 0.00 | 0.00 | 0.00 | 42 | 1015.9 |
| 20260506191022 | 61 | 70 | 9.0 | 20.0 | 0.00 | 0.00 | 0.00 | 41 | 1016.0 |
| 20260506190525 | 61 | 56 | 10.0 | 20.0 | 0.00 | 0.00 | 0.00 | 42 | 1016.0 |
| 20260506190037 | 61 | 50 | 14.0 | 20.0 | 0.00 | 0.00 | 0.00 | 44 | 1016.1 |
| 20260506185521 | 61 | 69 | 10.0 | 21.0 | 0.00 | 0.00 | 0.00 | 49 | 1015.9 |
| 20260506185022 | 61 | 63 | 11.0 | 21.0 | 0.00 | 0.00 | 0.00 | 43 | 1016.0 |
| 20260506184537 | 61 | 59 | 10.0 | 20.0 | 0.00 | 0.00 | 0.00 | 48 | 1016.1 |
| 20260506184021 | 60 | 59 | 14.0 | 20.0 | 0.00 | 0.00 | 0.00 | 44 | 1016.2 |
| 20260506183521 | 60 | 76 | 11.0 | 22.0 | 0.00 | 0.00 | 0.00 | 47 | 1016.2 |
| 20260506183039 | 60 | 34 | 15.0 | 22.0 | 0.00 | 0.00 | 0.00 | 43 | 1016.4 |
| 20260506182520 | 60 | 32 | 11.0 | 23.0 | 0.00 | 0.00 | 0.00 | 46 | 1016.4 |
| 20260506182020 | 59 | 53 | 11.0 | 23.0 | 0.00 | 0.00 | 0.00 | 45 | 1016.5 |
| 20260506181537 | 59 | 36 | 14.0 | 21.0 | 0.00 | 0.00 | 0.00 | 43 | 1016.5 |
| 20260506181023 | 60 | 15 | 11.0 | 24.0 | 0.00 | 0.00 | 0.00 | 44 | 1016.6 |
| 20260506180522 | 60 | 63 | 13.0 | 24.0 | 0.00 | 0.00 | 0.00 | 48 | 1016.7 |
| 20260506180042 | 59 | 53 | 12.0 | 24.0 | 0.00 | 0.00 | 0.00 | 46 | 1016.8 |
| 20260506175523 | 60 | 39 | 14.0 | 22.0 | 0.00 | 0.00 | 0.00 | 46 | 1016.7 |
| 20260506175021 | 60 | 46 | 14.0 | 22.0 | 0.00 | 0.00 | 0.00 | 48 | 1016.8 |
| 20260506174537 | 59 | 43 | 11.0 | 21.0 | 0.00 | 0.00 | 0.00 | 50 | 1017.0 |
| 20260506174021 | 59 | 55 | 13.0 | 21.0 | 0.00 | 0.00 | 0.00 | 50 | 1017.2 |
| 20260506173521 | 59 | 16 | 14.0 | 21.0 | 0.00 | 0.00 | 0.00 | 50 | 1017.0 |
| 20260506173044 | 59 | 32 | 11.0 | 18.0 | 0.00 | 0.00 | 0.00 | 51 | 1016.9 |
| 20260506172521 | 58 | 35 | 10.0 | 19.0 | 0.00 | 0.00 | 0.00 | 53 | 1016.9 |
| 20260506172021 | 58 | 21 | 9.0 | 19.0 | 0.00 | 0.00 | 0.00 | 54 | 1017.0 |
| 20260506171540 | 57 | 46 | 11.0 | 19.0 | 0.00 | 0.00 | 0.00 | 54 | 1016.9 |
| 20260506171023 | 57 | 23 | 12.0 | 20.0 | 0.00 | 0.00 | 0.00 | 56 | 1017.0 |
| 20260506170521 | 57 | 36 | 13.0 | 20.0 | 0.00 | 0.00 | 0.00 | 58 | 1017.0 |
| 20260506170036 | 56 | 329 | 11.0 | 22.0 | 0.00 | 0.00 | 0.00 | 58 | 1017.0 |
| 20260506165522 | 56 | 342 | 11.0 | 22.0 | 0.00 | 0.00 | 0.00 | 58 | 1017.1 |
| 20260506165021 | 57 | 55 | 11.0 | 19.0 | 0.00 | 0.00 | 0.00 | 59 | 1017.1 |
| 20260506164552 | 57 | 24 | 12.0 | 18.0 | 0.00 | 0.00 | 0.00 | 58 | 1017.1 |
| 20260506164022 | 57 | 18 | 10.0 | 18.0 | 0.00 | 0.00 | 0.00 | 60 | 1017.0 |
| 20260506163521 | 57 | 55 | 11.0 | 18.0 | 0.00 | 0.00 | 0.00 | 58 | 1016.7 |
| 20260506163042 | 56 | 14 | 9.0 | 18.0 | 0.00 | 0.00 | 0.00 | 62 | 1016.9 |
| 20260506162521 | 55 | 57 | 12.0 | 21.0 | 0.00 | 0.00 | 0.00 | 63 | 1017.0 |
| 20260506162021 | 55 | 49 | 10.0 | 22.0 | 0.00 | 0.00 | 0.00 | 65 | 1017.0 |
| 20260506161538 | 54 | 32 | 12.0 | 22.0 | 0.00 | 0.00 | 0.00 | 65 | 1016.7 |
| 20260506161022 | 55 | 355 | 10.0 | 17.0 | 0.00 | 0.00 | 0.00 | 65 | 1017.1 |
| 20260506160524 | 54 | 24 | 11.0 | 18.0 | 0.00 | 0.00 | 0.00 | 68 | 1017.0 |
| 20260506160046 | 53 | 9 | 12.0 | 18.0 | 0.00 | 0.00 | 0.00 | 70 | 1017.2 |
| 20260506155524 | 52 | 28 | 12.0 | 18.0 | 0.00 | 0.00 | 0.00 | 69 | 1017.0 |
| 20260506155021 | 52 | 11 | 9.0 | 17.0 | 0.00 | 0.00 | 0.00 | 71 | 1016.9 |
| 20260506154548 | 52 | 15 | 12.0 | 18.0 | 0.00 | 0.00 | 0.00 | 70 | 1016.9 |
| 20260506154021 | 53 | 38 | 12.0 | 18.0 | 0.00 | 0.00 | 0.00 | 69 | 1017.0 |
| 20260506153523 | 53 | 360 | 8.0 | 19.0 | 0.00 | 0.00 | 0.00 | 72 | 1016.8 |
| 20260506153038 | 53 | 5 | 10.0 | 19.0 | 0.00 | 0.00 | 0.00 | 69 | 1016.7 |
| 20260506152522 | 53 | 360 | 11.0 | 19.0 | 0.00 | 0.00 | 0.00 | 71 | 1016.7 |
| 20260506152023 | 53 | 44 | 14.0 | 18.0 | 0.00 | 0.00 | 0.00 | 69 | 1016.7 |
| 20260506151539 | 53 | 30 | 12.0 | 18.0 | 0.00 | 0.00 | 0.00 | 70 | 1016.9 |
| 20260506151021 | 53 | 35 | 11.0 | 19.0 | 0.00 | 0.00 | 0.00 | 73 | 1016.9 |
| 20260506150522 | 52 | 35 | 10.0 | 19.0 | 0.00 | 0.00 | 0.00 | 75 | 1016.8 |
| 20260506150038 | 51 | 10 | 8.0 | 14.0 | 0.00 | 0.00 | 0.00 | 76 | 1016.7 |
| 20260506145524 | 51 | 41 | 8.0 | 13.0 | 0.00 | 0.00 | 0.00 | 75 | 1016.5 |
| 20260506145022 | 51 | 5 | 5.0 | 14.0 | 0.00 | 0.00 | 0.00 | 75 | 1016.7 |
| 20260506144537 | 51 | 11 | 8.0 | 14.0 | 0.00 | 0.00 | 0.00 | 75 | 1016.8 |
| 20260506144023 | 50 | 31 | 5.0 | 14.0 | 0.00 | 0.00 | 0.00 | 79 | 1016.5 |
| 20260506143521 | 50 | 12 | 8.0 | 14.0 | 0.00 | 0.00 | 0.00 | 77 | 1016.4 |
| 20260506143038 | 49 | 16 | 7.0 | 14.0 | 0.00 | 0.00 | 0.00 | 77 | 1016.3 |
| 20260506142526 | 50 | 13 | 7.0 | 14.0 | 0.00 | 0.00 | 0.00 | 76 | 1016.7 |
| 20260506142022 | 50 | 346 | 8.0 | 15.0 | 0.00 | 0.00 | 0.00 | 76 | 1016.6 |
| 20260506141554 | 50 | 40 | 10.0 | 15.0 | 0.00 | 0.00 | 0.00 | 76 | 1016.5 |
| 20260506141022 | 50 | 22 | 10.0 | 14.0 | 0.00 | 0.00 | 0.00 | 78 | 1016.3 |
| 20260506140522 | 49 | 360 | 7.0 | 12.0 | 0.00 | 0.00 | 0.00 | 79 | 1016.2 |
| 20260506140040 | 49 | 32 | 7.0 | 12.0 | 0.00 | 0.00 | 0.00 | 80 | 1016.4 |
| 20260506135521 | 49 | 26 | 7.0 | 11.0 | 0.00 | 0.00 | 0.00 | 83 | 1016.1 |
| 20260506135021 | 48 | 348 | 6.0 | 10.0 | 0.00 | 0.00 | 0.00 | 86 | 1016.2 |
| 20260506134537 | 47 | 9 | 4.0 | 10.0 | 0.00 | 0.00 | 0.00 | 86 | 1016.1 |
| 20260506134021 | 46 | 37 | 7.0 | 10.0 | 0.00 | 0.00 | 0.00 | 87 | 1016.3 |
| 20260506133522 | 46 | 360 | 6.0 | 10.0 | 0.00 | 0.00 | 0.00 | 87 | 1016.4 |
| 20260506133037 | 46 | 27 | 3.0 | 10.0 | 0.00 | 0.00 | 0.00 | 87 | 1016.4 |
| 20260506132521 | 46 | 53 | 3.0 | 10.0 | 0.00 | 0.00 | 0.00 | 87 | 1016.5 |
| 20260506132021 | 45 | 31 | 5.0 | 10.0 | 0.00 | 0.00 | 0.00 | 88 | 1016.5 |
| 20260506131539 | 45 | 5 | 3.0 | 9.0 | 0.00 | 0.00 | 0.00 | 88 | 1016.4 |
| 20260506131021 | 45 | 342 | 2.0 | 10.0 | 0.00 | 0.00 | 0.00 | 88 | 1016.3 |
| 20260506130523 | 45 | 41 | 6.0 | 10.0 | 0.00 | 0.00 | 0.00 | 89 | 1016.2 |
| 20260506130037 | 45 | 37 | 2.0 | 9.0 | 0.00 | 0.00 | 0.00 | 89 | 1016.1 |
| 20260506125521 | 45 | 9 | 5.0 | 9.0 | 0.00 | 0.00 | 0.00 | 89 | 1016.0 |
| 20260506125025 | 44 | 34 | 5.0 | 9.0 | 0.00 | 0.00 | 0.00 | 89 | 1015.9 |
| 20260506124542 | 44 | 31 | 3.0 | 8.0 | 0.00 | 0.00 | 0.00 | 89 | 1015.8 |
| 20260506124021 | 44 | 355 | 3.0 | 8.0 | 0.00 | 0.00 | 0.00 | 89 | 1015.8 |
| 20260506123522 | 44 | 355 | 3.0 | 8.0 | 0.00 | 0.00 | 0.00 | 88 | 1015.9 |
| 20260506123043 | 44 | 42 | 2.0 | 9.0 | 0.00 | 0.00 | 0.00 | 89 | 1015.7 |
| 20260506122521 | 44 | 351 | 5.0 | 9.0 | 0.00 | 0.00 | 0.00 | 89 | 1015.6 |
| 20260506122022 | 44 | 5 | 4.0 | 9.0 | 0.00 | 0.00 | 0.00 | 89 | 1015.6 |
| 20260506121541 | 44 | 9 | 4.0 | 7.0 | 0.00 | 0.00 | 0.00 | 89 | 1015.3 |
| 20260506121021 | 43 | 22 | 2.0 | 7.0 | 0.00 | 0.00 | 0.00 | 89 | 1015.2 |
| 20260506120521 | 43 | 26 | 2.0 | 5.0 | 0.00 | 0.00 | 0.00 | 89 | 1015.0 |
| 20260506120105 | 43 | 49 | 2.0 | 5.0 | 0.00 | 0.00 | 0.00 | 89 | 1014.9 |
| 20260506115521 | 43 | 44 | 3.0 | 5.0 | 0.00 | 0.00 | 0.00 | 89 | 1014.7 |
| 20260506115022 | 43 | 36 | 3.0 | 7.0 | 0.00 | 0.00 | 0.00 | 89 | 1014.6 |
| 20260506114544 | 43 | 40 | 3.0 | 7.0 | 0.00 | 0.00 | 0.00 | 89 | 1014.4 |
| 20260506114022 | 43 | 39 | 3.0 | 6.0 | 0.00 | 0.00 | 0.00 | 89 | 1014.3 |
| 20260506113522 | 43 | 44 | 3.0 | 5.0 | 0.00 | 0.00 | 0.00 | 89 | 1014.4 |
| 20260506113039 | 43 | 46 | 3.0 | 7.0 | 0.00 | 0.00 | 0.00 | 89 | 1014.3 |
| 20260506112523 | 43 | 51 | 3.0 | 8.0 | 0.00 | 0.00 | 0.00 | 89 | 1014.4 |
| 20260506112022 | 43 | 57 | 4.0 | 8.0 | 0.00 | 0.00 | 0.00 | 89 | 1013.9 |
| 20260506111540 | 43 | 24 | 5.0 | 8.0 | 0.00 | 0.00 | 0.00 | 89 | 1014.1 |
| 20260506111022 | 43 | 41 | 4.0 | 8.0 | 0.00 | 0.00 | 0.00 | 89 | 1014.1 |
| 20260506110522 | 43 | 49 | 3.0 | 8.0 | 0.00 | 0.00 | 0.00 | 89 | 1014.0 |
| 20260506110038 | 43 | 53 | 3.0 | 8.0 | 0.00 | 0.00 | 0.00 | 89 | 1014.1 |
| 20260506105522 | 43 | 17 | 3.0 | 8.0 | 0.00 | 0.00 | 0.00 | 89 | 1014.3 |
| 20260506105023 | 43 | 43 | 2.0 | 6.0 | 0.00 | 0.00 | 0.00 | 88 | 1014.2 |
| 20260506104541 | 43 | 21 | 2.0 | 7.0 | 0.00 | 0.00 | 0.00 | 88 | 1014.1 |
| 20260506104022 | 43 | 34 | 4.0 | 7.0 | 0.00 | 0.00 | 0.00 | 88 | 1013.9 |
| 20260506103521 | 43 | 31 | 4.0 | 7.0 | 0.00 | 0.00 | 0.00 | 88 | 1013.8 |
| 20260506103037 | 44 | 46 | 4.0 | 7.0 | 0.00 | 0.00 | 0.00 | 88 | 1013.7 |
| 20260506102522 | 44 | 13 | 4.0 | 9.0 | 0.00 | 0.00 | 0.00 | 88 | 1014.1 |
| 20260506102022 | 44 | 36 | 3.0 | 10.0 | 0.00 | 0.00 | 0.00 | 88 | 1013.8 |
| 20260506101536 | 44 | 36 | 4.0 | 10.0 | 0.00 | 0.00 | 0.00 | 88 | 1013.6 |
| 20260506101023 | 44 | 55 | 6.0 | 10.0 | 0.00 | 0.00 | 0.00 | 88 | 1013.4 |
| 20260506100521 | 44 | 17 | 4.0 | 9.0 | 0.00 | 0.00 | 0.00 | 88 | 1013.8 |
| 20260506100039 | 44 | 44 | 5.0 | 10.0 | 0.00 | 0.00 | 0.00 | 88 | 1013.6 |
| 20260506095522 | 44 | 65 | 6.0 | 11.0 | 0.00 | 0.00 | 0.00 | 88 | 1013.5 |
| 20260506095022 | 44 | 57 | 8.0 | 13.0 | 0.00 | 0.00 | 0.00 | 88 | 1013.7 |
| 20260506094545 | 44 | 26 | 8.0 | 13.0 | 0.00 | 0.00 | 0.00 | 88 | 1013.8 |
| 20260506094022 | 44 | 19 | 7.0 | 14.0 | 0.00 | 0.00 | 0.00 | 88 | 1013.7 |
| 20260506093521 | 44 | 12 | 7.0 | 14.0 | 0.00 | 0.00 | 0.00 | 87 | 1013.8 |
| 20260506093045 | 44 | 45 | 7.0 | 14.0 | 0.00 | 0.00 | 0.00 | 87 | 1013.3 |
| 20260506092521 | 44 | 28 | 7.0 | 12.0 | 0.00 | 0.00 | 0.00 | 87 | 1013.7 |
| 20260506092021 | 44 | 345 | 7.0 | 12.0 | 0.00 | 0.00 | 0.00 | 87 | 1013.9 |
| 20260506091537 | 44 | 68 | 7.0 | 11.0 | 0.00 | 0.00 | 0.00 | 87 | 1013.6 |
| 20260506091024 | 44 | 39 | 5.0 | 10.0 | 0.00 | 0.00 | 0.00 | 86 | 1013.9 |
| 20260506090521 | 44 | 32 | 6.0 | 10.0 | 0.00 | 0.00 | 0.00 | 86 | 1014.0 |
| 20260506090037 | 44 | 28 | 6.0 | 10.0 | 0.00 | 0.00 | 0.00 | 86 | 1014.1 |
| 20260506085522 | 44 | 15 | 6.0 | 10.0 | 0.00 | 0.00 | 0.00 | 86 | 1014.1 |
| 20260506085021 | 44 | 36 | 4.0 | 13.0 | 0.00 | 0.00 | 0.00 | 85 | 1014.1 |
| 20260506084536 | 44 | 19 | 7.0 | 13.0 | 0.00 | 0.00 | 0.00 | 85 | 1013.9 |
| 20260506084021 | 44 | 44 | 8.0 | 13.0 | 0.00 | 0.00 | 0.00 | 85 | 1013.7 |
| 20260506083525 | 45 | 22 | 6.0 | 13.0 | 0.00 | 0.00 | 0.00 | 84 | 1013.8 |
| 20260506083044 | 44 | 352 | 5.0 | 15.0 | 0.00 | 0.00 | 0.00 | 84 | 1013.9 |
| 20260506082522 | 45 | 348 | 7.0 | 15.0 | 0.00 | 0.00 | 0.00 | 84 | 1013.7 |
| 20260506082021 | 45 | 37 | 7.0 | 17.0 | 0.00 | 0.00 | 0.00 | 84 | 1013.9 |
| 20260506081538 | 45 | 24 | 11.0 | 17.0 | 0.00 | 0.00 | 0.00 | 84 | 1013.7 |
| 20260506081022 | 45 | 5 | 8.0 | 15.0 | 0.00 | 0.00 | 0.00 | 84 | 1014.0 |
| 20260506080524 | 45 | 26 | 7.0 | 16.0 | 0.00 | 0.00 | 0.00 | 85 | 1013.7 |
| 20260506073520 | 45 | 40 | 11.0 | 23.0 | 0.00 | 0.00 | 0.00 | 84 | 1012.1 |
| 20260506073038 | 45 | 348 | 14.0 | 23.0 | 0.00 | 0.00 | 0.00 | 84 | 1012.1 |
| 20260506072521 | 45 | 19 | 14.0 | 23.0 | 0.00 | 0.00 | 0.00 | 84 | 1012.1 |
| 20260506072022 | 45 | 20 | 14.0 | 23.0 | 0.00 | 0.00 | 0.00 | 84 | 1012.1 |
| 20260506071549 | 45 | 351 | 14.0 | 21.0 | 0.00 | 0.00 | 0.00 | 83 | 1011.8 |
| 20260506071021 | 45 | 30 | 13.0 | 19.0 | 0.00 | 0.00 | 0.00 | 83 | 1011.8 |
| 20260506070522 | 46 | 41 | 11.0 | 19.0 | 0.00 | 0.00 | 0.00 | 82 | 1012.2 |
| 20260506062021 | 48 | 24 | 13.0 | 22.0 | 0.00 | 0.00 | 0.00 | 73 | 1011.8 |
| 20260506061538 | 49 | 41 | 12.0 | 22.0 | 0.00 | 0.00 | 0.00 | 71 | 1011.8 |
| 20260506061022 | 49 | 34 | 11.0 | 18.0 | 0.00 | 0.00 | 0.00 | 70 | 1012.1 |
| 20260506060522 | 49 | 351 | 11.0 | 20.0 | 0.00 | 0.00 | 0.00 | 68 | 1012.0 |